Time,TemperatureF,DewpointF,PressureIn,WindDirection,WindDirectionDegrees,WindSpeedMPH,WindSpeedGustMPH,Humidity,HourlyPrecipIn,Conditions,Clouds,dailyrainin,SoftwareType,DateUTC
2013-03-16 00:02:00,53.1,52.7,29.99,WNW,293,2.0,4.0,99,0.00,,,0.00,meteohub,2013-03-16 07:02:00,
2013-03-16 00:07:00,53.1,52.7,29.99,NW,315,3.0,4.0,99,0.00,,,0.00,meteohub,2013-03-16 07:07:00,
2013-03-16 00:12:00,52.9,52.5,29.99,West,270,2.0,4.0,99,0.00,,,0.00,meteohub,2013-03-16 07:12:00,
2013-03-16 00:17:00,52.9,52.5,29.99,West,270,2.0,4.0,99,0.00,,,0.00,meteohub,2013-03-16 07:17:00,
2013-03-16 00:22:00,52.9,52.5,29.98,West,270,4.0,4.0,99,0.00,,,0.00,meteohub,2013-03-16 07:22:00,
2013-03-16 00:27:00,53.1,52.7,29.98,West,270,2.0,5.0,99,0.00,,,0.00,meteohub,2013-03-16 07:27:00,
2013-03-16 00:32:00,53.1,52.7,29.98,NW,315,4.0,5.0,99,0.00,,,0.00,meteohub,2013-03-16 07:32:00,
2013-03-16 00:37:00,53.1,52.7,29.98,South,180,2.0,5.0,99,0.00,,,0.00,meteohub,2013-03-16 07:37:00,
2013-03-16 00:42:00,53.1,52.7,29.99,South,180,1.0,4.0,99,0.00,,,0.00,meteohub,2013-03-16 07:42:00,
2013-03-16 00:47:00,53.2,52.9,29.98,West,270,0.0,4.0,99,0.00,,,0.00,meteohub,2013-03-16 07:47:00,
2013-03-16 00:52:00,53.2,52.9,29.99,West,270,2.0,4.0,99,0.00,,,0.00,meteohub,2013-03-16 07:52:00,
2013-03-16 00:57:00,53.2,52.9,29.99,West,270,4.0,4.0,99,0.00,,,0.00,meteohub,2013-03-16 07:57:00,
2013-03-16 01:02:00,52.9,52.5,29.99,West,270,4.0,4.0,99,0.00,,,0.00,meteohub,2013-03-16 08:02:00,
2013-03-16 01:07:00,52.9,52.5,29.99,West,270,3.0,5.0,99,0.00,,,0.00,meteohub,2013-03-16 08:07:00,
2013-03-16 01:12:00,52.7,52.3,29.99,West,270,3.0,5.0,99,0.00,,,0.00,meteohub,2013-03-16 08:12:00,
2013-03-16 01:17:00,52.5,52.2,29.99,West,270,2.0,5.0,99,0.00,,,0.00,meteohub,2013-03-16 08:17:00,
2013-03-16 01:23:00,52.5,52.2,29.99,WNW,293,2.0,5.0,99,0.00,,,0.00,meteohub,2013-03-16 08:23:00,
2013-03-16 01:28:00,52.5,52.2,29.99,South,180,2.0,5.0,99,0.00,,,0.00,meteohub,2013-03-16 08:28:00,
2013-03-16 01:33:00,52.5,52.2,29.98,West,270,7.0,7.0,99,0.00,,,0.00,meteohub,2013-03-16 08:33:00,
2013-03-16 01:38:00,52.5,52.2,29.99,West,270,2.0,7.0,99,0.00,,,0.00,meteohub,2013-03-16 08:38:00,
2013-03-16 01:43:00,52.5,52.2,29.99,West,270,4.0,7.0,99,0.00,,,0.00,meteohub,2013-03-16 08:43:00,
2013-03-16 01:48:00,52.5,52.2,29.99,West,270,2.0,7.0,99,0.00,,,0.00,meteohub,2013-03-16 08:48:00,
2013-03-16 01:53:00,52.5,52.2,29.99,West,270,3.0,4.0,99,0.00,,,0.00,meteohub,2013-03-16 08:53:00,
2013-03-16 01:58:00,52.5,52.2,29.99,West,270,6.0,6.0,99,0.00,,,0.00,meteohub,2013-03-16 08:58:00,
2013-03-16 02:03:00,52.3,52.0,29.99,West,270,4.0,6.0,99,0.00,,,0.00,meteohub,2013-03-16 09:03:00,
2013-03-16 02:08:00,52.5,52.2,29.99,West,270,5.0,6.0,99,0.00,,,0.00,meteohub,2013-03-16 09:08:00,
2013-03-16 02:13:00,52.5,52.2,29.99,South,180,3.0,6.0,99,0.00,,,0.00,meteohub,2013-03-16 09:13:00,
2013-03-16 02:18:00,52.5,52.2,30.00,WNW,293,5.0,7.0,99,0.00,,,0.00,meteohub,2013-03-16 09:18:00,
2013-03-16 02:23:00,52.5,52.2,30.00,North,0,3.0,7.0,99,0.00,,,0.00,meteohub,2013-03-16 09:23:00,
2013-03-16 02:28:00,52.5,52.2,29.99,WNW,293,4.0,7.0,99,0.00,,,0.00,meteohub,2013-03-16 09:28:00,
2013-03-16 02:33:00,52.7,52.3,29.99,West,270,4.0,5.0,99,0.00,,,0.00,meteohub,2013-03-16 09:33:00,
2013-03-16 02:38:00,52.7,52.3,29.99,WNW,293,6.0,6.0,99,0.00,,,0.00,meteohub,2013-03-16 09:38:00,
2013-03-16 02:43:00,52.5,52.2,29.99,WSW,248,5.0,6.0,99,0.00,,,0.00,meteohub,2013-03-16 09:43:00,
2013-03-16 02:48:00,52.5,52.2,29.99,West,270,5.0,6.0,99,0.00,,,0.00,meteohub,2013-03-16 09:48:00,
2013-03-16 02:53:00,52.3,52.0,29.99,WNW,293,4.0,6.0,99,0.00,,,0.00,meteohub,2013-03-16 09:53:00,
2013-03-16 02:58:00,52.3,52.0,29.99,WNW,293,2.0,6.0,99,0.00,,,0.00,meteohub,2013-03-16 09:58:00,
2013-03-16 03:03:00,52.3,52.0,29.99,West,270,3.0,6.0,99,0.00,,,0.00,meteohub,2013-03-16 10:03:00,
2013-03-16 03:08:00,52.3,52.0,29.99,West,270,4.0,6.0,99,0.00,,,0.00,meteohub,2013-03-16 10:08:00,
2013-03-16 03:13:00,52.3,52.0,29.99,West,270,3.0,6.0,99,0.00,,,0.00,meteohub,2013-03-16 10:13:00,
2013-03-16 03:18:00,52.3,52.0,29.99,West,270,2.0,6.0,99,0.00,,,0.00,meteohub,2013-03-16 10:18:00,
2013-03-16 03:23:00,52.3,52.0,29.98,West,270,3.0,6.0,99,0.00,,,0.00,meteohub,2013-03-16 10:23:00,
2013-03-16 03:28:00,52.3,52.0,29.98,West,270,3.0,4.0,99,0.00,,,0.00,meteohub,2013-03-16 10:28:00,
2013-03-16 03:33:00,52.5,52.2,29.98,West,270,1.0,4.0,99,0.00,,,0.00,meteohub,2013-03-16 10:33:00,
2013-03-16 03:38:00,52.5,52.2,29.98,West,270,2.0,4.0,99,0.00,,,0.00,meteohub,2013-03-16 10:38:00,
2013-03-16 03:43:00,52.5,52.2,29.98,West,270,3.0,4.0,99,0.00,,,0.00,meteohub,2013-03-16 10:43:00,
2013-03-16 03:48:00,52.3,52.0,29.97,NW,315,3.0,4.0,99,0.00,,,0.00,meteohub,2013-03-16 10:48:00,
2013-03-16 03:53:00,52.3,52.0,29.97,SE,135,2.0,4.0,99,0.00,,,0.00,meteohub,2013-03-16 10:53:00,
2013-03-16 03:58:00,52.5,52.2,29.97,SE,135,2.0,4.0,99,0.00,,,0.00,meteohub,2013-03-16 10:58:00,
2013-03-16 04:03:00,52.3,52.0,29.97,West,270,4.0,4.0,99,0.00,,,0.00,meteohub,2013-03-16 11:03:00,
2013-03-16 04:08:00,52.3,52.0,29.97,West,270,4.0,4.0,99,0.00,,,0.00,meteohub,2013-03-16 11:08:00,
2013-03-16 04:13:00,52.3,52.0,29.97,West,270,2.0,4.0,99,0.00,,,0.00,meteohub,2013-03-16 11:13:00,
2013-03-16 04:18:00,52.3,52.0,29.97,West,270,2.0,4.0,99,0.00,,,0.00,meteohub,2013-03-16 11:18:00,
2013-03-16 04:23:00,52.5,52.2,29.96,West,270,1.0,4.0,99,0.00,,,0.00,meteohub,2013-03-16 11:23:00,
2013-03-16 04:28:00,52.5,52.2,29.96,SSE,158,4.0,4.0,99,0.00,,,0.00,meteohub,2013-03-16 11:28:00,
2013-03-16 04:33:00,52.5,52.0,29.96,South,180,3.0,5.0,98,0.00,,,0.00,meteohub,2013-03-16 11:33:00,
2013-03-16 04:38:00,52.7,51.8,29.96,South,180,6.0,6.0,97,0.00,,,0.00,meteohub,2013-03-16 11:38:00,
2013-03-16 04:43:00,52.7,51.8,29.96,West,270,2.0,5.0,97,0.00,,,0.00,meteohub,2013-03-16 11:43:00,
2013-03-16 04:48:00,52.7,51.8,29.96,West,270,2.0,6.0,97,0.00,,,0.00,meteohub,2013-03-16 11:48:00,
2013-03-16 04:53:00,52.5,51.6,29.96,South,180,3.0,6.0,97,0.00,,,0.00,meteohub,2013-03-16 11:53:00,
2013-03-16 04:58:00,52.7,51.8,29.96,South,180,2.0,4.0,97,0.00,,,0.00,meteohub,2013-03-16 11:58:00,
2013-03-16 05:03:00,52.7,51.8,29.96,SE,135,4.0,4.0,97,0.00,,,0.00,meteohub,2013-03-16 12:03:00,
2013-03-16 05:08:00,52.7,51.8,29.96,SE,135,3.0,4.0,97,0.00,,,0.00,meteohub,2013-03-16 12:08:00,
2013-03-16 05:13:00,52.7,51.8,29.96,SE,135,1.0,4.0,97,0.00,,,0.00,meteohub,2013-03-16 12:13:00,
2013-03-16 05:18:00,52.7,51.8,29.96,South,180,2.0,4.0,97,0.00,,,0.00,meteohub,2013-03-16 12:18:00,
2013-03-16 05:23:00,52.7,51.6,29.96,South,180,2.0,4.0,96,0.00,,,0.00,meteohub,2013-03-16 12:23:00,
2013-03-16 05:29:00,52.7,51.6,29.96,South,180,4.0,4.0,96,0.00,,,0.00,meteohub,2013-03-16 12:29:00,
2013-03-16 05:34:00,52.7,51.6,29.96,SE,135,2.0,5.0,96,0.00,,,0.00,meteohub,2013-03-16 12:34:00,
2013-03-16 05:39:00,52.7,51.6,29.96,SE,135,3.0,5.0,96,0.00,,,0.00,meteohub,2013-03-16 12:39:00,
2013-03-16 05:44:00,52.7,51.6,29.96,South,180,2.0,5.0,96,0.00,,,0.00,meteohub,2013-03-16 12:44:00,
2013-03-16 05:49:00,52.7,51.6,29.96,South,180,2.0,4.0,96,0.00,,,0.00,meteohub,2013-03-16 12:49:00,
2013-03-16 05:54:00,52.9,51.8,29.96,West,270,3.0,3.0,96,0.00,,,0.00,meteohub,2013-03-16 12:54:00,
2013-03-16 05:59:00,52.7,51.6,29.96,West,270,3.0,4.0,96,0.00,,,0.00,meteohub,2013-03-16 12:59:00,
2013-03-16 06:04:00,52.7,51.6,29.97,West,270,4.0,4.0,96,0.00,,,0.00,meteohub,2013-03-16 13:04:00,
2013-03-16 06:09:00,52.5,51.6,29.97,West,270,3.0,4.0,97,0.00,,,0.00,meteohub,2013-03-16 13:09:00,
2013-03-16 06:14:00,52.5,51.6,29.97,West,270,2.0,4.0,97,0.00,,,0.00,meteohub,2013-03-16 13:14:00,
2013-03-16 06:19:00,52.5,51.6,29.97,West,270,2.0,4.0,97,0.00,,,0.00,meteohub,2013-03-16 13:19:00,
2013-03-16 06:24:00,52.5,51.6,29.97,South,180,3.0,4.0,97,0.00,,,0.00,meteohub,2013-03-16 13:24:00,
2013-03-16 06:29:00,52.5,51.6,29.97,SE,135,2.0,4.0,97,0.00,,,0.00,meteohub,2013-03-16 13:29:00,
2013-03-16 06:34:00,52.5,51.6,29.97,South,180,2.0,4.0,97,0.00,,,0.00,meteohub,2013-03-16 13:34:00,
2013-03-16 06:39:00,52.5,51.6,29.97,West,270,2.0,4.0,97,0.00,,,0.00,meteohub,2013-03-16 13:39:00,
2013-03-16 06:44:00,52.5,51.6,29.98,West,270,2.0,2.0,97,0.00,,,0.00,meteohub,2013-03-16 13:44:00,
2013-03-16 06:49:00,52.5,51.6,29.98,West,270,0.0,2.0,97,0.00,,,0.00,meteohub,2013-03-16 13:49:00,
2013-03-16 06:54:00,52.7,51.8,29.98,West,270,0.0,2.0,97,0.00,,,0.00,meteohub,2013-03-16 13:54:00,
2013-03-16 06:59:00,52.5,51.6,29.98,West,270,0.0,2.0,97,0.00,,,0.00,meteohub,2013-03-16 13:59:00,
2013-03-16 07:04:00,52.7,51.8,29.98,West,270,4.0,4.0,97,0.00,,,0.00,meteohub,2013-03-16 14:04:00,
2013-03-16 07:09:00,52.5,51.6,29.98,NW,315,4.0,4.0,97,0.00,,,0.00,meteohub,2013-03-16 14:09:00,
2013-03-16 07:14:00,52.5,52.0,29.99,SSE,158,2.0,4.0,98,0.00,,,0.00,meteohub,2013-03-16 14:14:00,
2013-03-16 07:19:00,52.5,52.0,29.98,SSE,158,4.0,5.0,98,0.00,,,0.00,meteohub,2013-03-16 14:19:00,
2013-03-16 07:24:00,52.5,52.0,29.98,South,180,3.0,5.0,98,0.00,,,0.00,meteohub,2013-03-16 14:24:00,
2013-03-16 07:29:00,52.7,52.2,29.98,West,270,2.0,4.0,98,0.00,,,0.00,meteohub,2013-03-16 14:29:00,
2013-03-16 07:34:00,52.7,51.8,29.98,South,180,2.0,4.0,97,0.00,,,0.00,meteohub,2013-03-16 14:34:00,
2013-03-16 07:39:00,52.7,51.8,29.98,South,180,2.0,4.0,97,0.00,,,0.00,meteohub,2013-03-16 14:39:00,
2013-03-16 07:44:00,52.9,52.3,29.99,SSE,158,4.0,4.0,98,0.00,,,0.00,meteohub,2013-03-16 14:44:00,
2013-03-16 07:49:00,52.7,52.2,29.99,SE,135,2.0,3.0,98,0.00,,,0.00,meteohub,2013-03-16 14:49:00,
2013-03-16 07:54:00,53.1,52.2,29.99,SE,135,0.0,4.0,97,0.00,,,0.00,meteohub,2013-03-16 14:54:00,
2013-03-16 07:59:00,53.1,52.2,29.98,SE,135,2.0,4.0,97,0.00,,,0.00,meteohub,2013-03-16 14:59:00,
2013-03-16 08:04:00,52.9,52.0,29.99,SE,135,2.0,3.0,97,0.00,,,0.00,meteohub,2013-03-16 15:04:00,
2013-03-16 08:09:00,53.2,52.3,29.98,SE,135,2.0,4.0,97,0.00,,,0.00,meteohub,2013-03-16 15:09:00,
2013-03-16 08:15:00,53.4,52.5,29.98,SE,135,2.0,4.0,97,0.00,,,0.00,meteohub,2013-03-16 15:15:00,
2013-03-16 08:20:00,53.4,52.3,29.98,West,270,3.0,4.0,96,0.00,,,0.00,meteohub,2013-03-16 15:20:00,
2013-03-16 08:25:00,53.4,52.3,29.99,South,180,3.0,4.0,96,0.00,,,0.00,meteohub,2013-03-16 15:25:00,
2013-03-16 08:30:00,53.6,52.2,29.99,South,180,2.0,4.0,95,0.00,,,0.00,meteohub,2013-03-16 15:30:00,
2013-03-16 08:35:00,53.8,52.3,29.99,SE,135,4.0,5.0,95,0.00,,,0.00,meteohub,2013-03-16 15:35:00,
2013-03-16 08:40:00,53.8,51.8,29.99,SE,135,3.0,5.0,93,0.00,,,0.00,meteohub,2013-03-16 15:40:00,
2013-03-16 08:45:00,54.0,52.3,29.99,SE,135,2.0,4.0,94,0.00,,,0.00,meteohub,2013-03-16 15:45:00,
2013-03-16 08:50:00,54.0,52.0,29.99,South,180,3.0,4.0,93,0.00,,,0.00,meteohub,2013-03-16 15:50:00,
2013-03-16 08:55:00,54.1,52.2,29.99,West,270,2.0,6.0,93,0.00,,,0.00,meteohub,2013-03-16 15:55:00,
2013-03-16 09:00:00,54.1,51.6,29.99,SE,135,4.0,6.0,91,0.00,,,0.00,meteohub,2013-03-16 16:00:00,
2013-03-16 09:05:00,54.3,51.8,29.99,South,180,2.0,6.0,91,0.00,,,0.00,meteohub,2013-03-16 16:05:00,
2013-03-16 09:10:00,54.5,52.0,30.00,West,270,4.0,5.0,91,0.00,,,0.00,meteohub,2013-03-16 16:10:00,
2013-03-16 09:15:00,54.5,52.0,30.00,West,270,0.0,5.0,91,0.00,,,0.00,meteohub,2013-03-16 16:15:00,
2013-03-16 09:20:00,54.9,52.0,30.00,West,270,2.0,4.0,90,0.00,,,0.00,meteohub,2013-03-16 16:20:00,
2013-03-16 09:25:00,55.0,51.8,29.99,South,180,2.0,4.0,89,0.00,,,0.00,meteohub,2013-03-16 16:25:00,
2013-03-16 09:30:00,55.2,51.8,29.99,West,270,4.0,4.0,88,0.00,,,0.00,meteohub,2013-03-16 16:30:00,
2013-03-16 09:35:00,55.2,52.0,30.00,West,270,2.0,3.0,89,0.00,,,0.00,meteohub,2013-03-16 16:35:00,
2013-03-16 09:40:00,55.4,52.0,30.00,West,270,3.0,4.0,88,0.00,,,0.00,meteohub,2013-03-16 16:40:00,
2013-03-16 09:45:00,55.6,51.8,30.00,West,270,3.0,4.0,87,0.00,,,0.00,meteohub,2013-03-16 16:45:00,
2013-03-16 09:50:00,56.3,52.5,30.00,West,270,3.0,4.0,87,0.00,,,0.00,meteohub,2013-03-16 16:50:00,
2013-03-16 09:55:00,56.7,52.5,30.00,SE,135,2.0,3.0,86,0.00,,,0.00,meteohub,2013-03-16 16:55:00,
2013-03-16 10:00:00,57.0,52.2,30.00,ESE,113,3.0,4.0,84,0.00,,,0.00,meteohub,2013-03-16 17:00:00,
2013-03-16 10:05:00,57.4,52.3,30.00,South,180,1.0,4.0,83,0.00,,,0.00,meteohub,2013-03-16 17:05:00,
2013-03-16 10:10:00,57.4,51.6,30.00,SE,135,6.0,6.0,81,0.00,,,0.00,meteohub,2013-03-16 17:10:00,
2013-03-16 10:15:00,57.6,52.2,30.00,South,180,2.0,5.0,82,0.00,,,0.00,meteohub,2013-03-16 17:15:00,
2013-03-16 10:20:00,57.9,52.2,30.00,South,180,2.0,7.0,81,0.00,,,0.00,meteohub,2013-03-16 17:20:00,
2013-03-16 10:25:00,58.6,52.9,30.00,South,180,1.0,6.0,81,0.00,,,0.00,meteohub,2013-03-16 17:25:00,
2013-03-16 10:30:00,59.0,52.5,30.00,West,270,2.0,4.0,79,0.00,,,0.00,meteohub,2013-03-16 17:30:00,
2013-03-16 10:35:00,58.5,51.6,30.00,NW,315,2.0,4.0,78,0.00,,,0.00,meteohub,2013-03-16 17:35:00,
2013-03-16 10:40:00,58.8,52.0,30.00,North,0,3.0,4.0,78,0.00,,,0.00,meteohub,2013-03-16 17:40:00,
2013-03-16 10:45:00,59.5,53.1,30.00,North,0,2.0,4.0,79,0.00,,,0.00,meteohub,2013-03-16 17:45:00,
2013-03-16 10:50:00,59.7,52.2,30.00,NW,315,2.0,5.0,76,0.00,,,0.00,meteohub,2013-03-16 17:50:00,
2013-03-16 10:55:00,60.4,53.2,30.00,NW,315,1.0,5.0,77,0.00,,,0.00,meteohub,2013-03-16 17:55:00,
2013-03-16 11:00:00,61.2,52.9,30.00,NW,315,4.0,5.0,74,0.00,,,0.00,meteohub,2013-03-16 18:00:00,
2013-03-16 11:05:00,60.4,52.2,30.00,West,270,3.0,5.0,74,0.00,,,0.00,meteohub,2013-03-16 18:05:00,
2013-03-16 11:10:00,61.2,52.0,30.00,South,180,2.0,5.0,72,0.00,,,0.00,meteohub,2013-03-16 18:10:00,
2013-03-16 11:15:00,60.6,51.6,29.99,NW,315,6.0,6.0,72,0.00,,,0.00,meteohub,2013-03-16 18:15:00,
2013-03-16 11:20:00,60.4,51.8,29.99,NW,315,7.0,7.0,73,0.00,,,0.00,meteohub,2013-03-16 18:20:00,
2013-03-16 11:25:00,61.0,52.0,29.99,West,270,4.0,7.0,72,0.00,,,0.00,meteohub,2013-03-16 18:25:00,
2013-03-16 11:30:00,61.0,52.0,29.99,NE,45,4.0,7.0,72,0.00,,,0.00,meteohub,2013-03-16 18:30:00,
2013-03-16 11:36:00,63.0,53.4,29.99,NE,45,2.0,7.0,71,0.00,,,0.00,meteohub,2013-03-16 18:36:00,
2013-03-16 11:41:00,64.4,52.0,29.98,West,270,5.0,7.0,64,0.00,,,0.00,meteohub,2013-03-16 18:41:00,
2013-03-16 11:46:00,63.7,51.6,29.99,NW,315,2.0,9.0,65,0.00,,,0.00,meteohub,2013-03-16 18:46:00,
2013-03-16 11:51:00,64.4,52.9,29.99,West,270,3.0,9.0,66,0.00,,,0.00,meteohub,2013-03-16 18:51:00,
2013-03-16 11:56:00,64.0,52.9,29.98,NW,315,6.0,9.0,67,0.00,,,0.00,meteohub,2013-03-16 18:56:00,
2013-03-16 12:01:00,62.8,52.9,29.98,West,270,7.0,10.0,70,0.00,,,0.00,meteohub,2013-03-16 19:01:00,
2013-03-16 12:06:00,63.1,52.9,29.98,West,270,9.0,10.0,69,0.00,,,0.00,meteohub,2013-03-16 19:06:00,
2013-03-16 12:11:00,63.1,53.6,29.99,West,270,11.0,11.0,71,0.00,,,0.00,meteohub,2013-03-16 19:11:00,
2013-03-16 12:16:00,63.7,54.1,29.99,West,270,6.0,11.0,71,0.00,,,0.00,meteohub,2013-03-16 19:16:00,
2013-03-16 12:21:00,64.4,53.6,29.99,NW,315,8.0,11.0,68,0.00,,,0.00,meteohub,2013-03-16 19:21:00,
2013-03-16 12:26:00,64.9,53.8,29.99,NW,315,9.0,11.0,67,0.00,,,0.00,meteohub,2013-03-16 19:26:00,
2013-03-16 12:31:00,64.4,53.2,29.99,NW,315,9.0,10.0,67,0.00,,,0.00,meteohub,2013-03-16 19:31:00,
2013-03-16 12:36:00,64.0,52.9,29.99,West,270,11.0,11.0,67,0.00,,,0.00,meteohub,2013-03-16 19:36:00,
2013-03-16 12:41:00,62.8,52.9,29.99,NW,315,8.0,11.0,70,0.00,,,0.00,meteohub,2013-03-16 19:41:00,
2013-03-16 12:46:00,63.9,54.0,29.99,West,270,7.0,11.0,70,0.00,,,0.00,meteohub,2013-03-16 19:46:00,
2013-03-16 12:51:00,63.1,52.9,29.98,NW,315,8.0,11.0,69,0.00,,,0.00,meteohub,2013-03-16 19:51:00,
2013-03-16 12:57:00,63.5,53.1,29.98,West,270,5.0,11.0,69,0.00,,,0.00,meteohub,2013-03-16 19:57:00,
2013-03-16 13:02:00,63.7,53.2,29.97,West,270,8.0,9.0,69,0.00,,,0.00,meteohub,2013-03-16 20:02:00,
2013-03-16 13:07:00,63.7,53.8,29.97,NW,315,6.0,11.0,70,0.00,,,0.00,meteohub,2013-03-16 20:07:00,
2013-03-16 13:12:00,64.6,52.9,29.97,NW,315,12.0,12.0,66,0.00,,,0.00,meteohub,2013-03-16 20:12:00,
2013-03-16 13:17:00,64.0,52.9,29.97,NW,315,11.0,12.0,67,0.00,,,0.00,meteohub,2013-03-16 20:17:00,
2013-03-16 13:22:00,63.1,52.9,29.97,North,0,8.0,12.0,69,0.00,,,0.00,meteohub,2013-03-16 20:22:00,
2013-03-16 13:27:00,63.5,53.1,29.97,WNW,293,10.0,12.0,69,0.00,,,0.00,meteohub,2013-03-16 20:27:00,
2013-03-16 13:32:00,64.0,53.2,29.96,NW,315,7.0,11.0,68,0.00,,,0.00,meteohub,2013-03-16 20:32:00,
2013-03-16 13:37:00,63.7,52.9,29.96,NW,315,5.0,10.0,68,0.00,,,0.00,meteohub,2013-03-16 20:37:00,
2013-03-16 13:42:00,63.1,52.9,29.96,NW,315,5.0,11.0,69,0.00,,,0.00,meteohub,2013-03-16 20:42:00,
2013-03-16 13:47:00,63.0,52.7,29.96,West,270,5.0,11.0,69,0.00,,,0.00,meteohub,2013-03-16 20:47:00,
2013-03-16 13:52:00,63.1,53.6,29.96,North,0,6.0,11.0,71,0.00,,,0.00,meteohub,2013-03-16 20:52:00,
2013-03-16 13:57:00,63.1,52.9,29.96,WNW,293,11.0,11.0,69,0.00,,,0.00,meteohub,2013-03-16 20:57:00,
2013-03-16 14:02:00,63.5,53.1,29.95,NW,315,8.0,11.0,69,0.00,,,0.00,meteohub,2013-03-16 21:02:00,
2013-03-16 14:07:00,63.1,52.3,29.95,NW,315,7.0,11.0,68,0.00,,,0.00,meteohub,2013-03-16 21:07:00,
2013-03-16 14:12:00,62.6,53.1,29.94,NW,315,8.0,12.0,71,0.00,,,0.00,meteohub,2013-03-16 21:12:00,
2013-03-16 14:17:00,63.0,53.1,29.94,West,270,5.0,12.0,70,0.00,,,0.00,meteohub,2013-03-16 21:17:00,
2013-03-16 14:22:00,62.6,53.1,29.94,NW,315,8.0,12.0,71,0.00,,,0.00,meteohub,2013-03-16 21:22:00,
2013-03-16 14:27:00,62.6,52.7,29.94,NW,315,7.0,12.0,70,0.00,,,0.00,meteohub,2013-03-16 21:27:00,
2013-03-16 14:32:00,62.6,52.7,29.94,NW,315,11.0,12.0,70,0.00,,,0.00,meteohub,2013-03-16 21:32:00,
2013-03-16 14:37:00,62.4,52.9,29.94,NW,315,9.0,12.0,71,0.00,,,0.00,meteohub,2013-03-16 21:37:00,
2013-03-16 14:42:00,62.4,52.9,29.94,NW,315,9.0,11.0,71,0.00,,,0.00,meteohub,2013-03-16 21:42:00,
2013-03-16 14:47:00,62.6,52.7,29.94,NW,315,8.0,11.0,70,0.00,,,0.00,meteohub,2013-03-16 21:47:00,
2013-03-16 14:52:00,63.3,53.1,29.93,West,270,8.0,11.0,69,0.00,,,0.00,meteohub,2013-03-16 21:52:00,
2013-03-16 14:57:00,63.0,53.1,29.93,NW,315,6.0,11.0,70,0.00,,,0.00,meteohub,2013-03-16 21:57:00,
2013-03-16 15:02:00,63.0,53.4,29.93,West,270,6.0,11.0,71,0.00,,,0.00,meteohub,2013-03-16 22:02:00,
2013-03-16 15:07:00,62.8,52.9,29.93,NW,315,11.0,11.0,70,0.00,,,0.00,meteohub,2013-03-16 22:07:00,
2013-03-16 15:12:00,63.0,53.4,29.93,NW,315,8.0,11.0,71,0.00,,,0.00,meteohub,2013-03-16 22:12:00,
2013-03-16 15:17:00,63.5,53.6,29.93,NW,315,12.0,12.0,70,0.00,,,0.00,meteohub,2013-03-16 22:17:00,
2013-03-16 15:22:00,62.6,53.1,29.92,WNW,293,11.0,12.0,71,0.00,,,0.00,meteohub,2013-03-16 22:22:00,
2013-03-16 15:27:00,62.8,53.2,29.93,NW,315,8.0,14.0,71,0.00,,,0.00,meteohub,2013-03-16 22:27:00,
2013-03-16 15:32:00,62.6,53.1,29.92,West,270,8.0,14.0,71,0.00,,,0.00,meteohub,2013-03-16 22:32:00,
2013-03-16 15:37:00,63.0,53.4,29.92,West,270,6.0,14.0,71,0.00,,,0.00,meteohub,2013-03-16 22:37:00,
2013-03-16 15:42:00,62.8,53.6,29.92,West,270,8.0,11.0,72,0.00,,,0.00,meteohub,2013-03-16 22:42:00,
2013-03-16 15:48:00,62.4,53.2,29.92,West,270,10.0,11.0,72,0.00,,,0.00,meteohub,2013-03-16 22:48:00,
2013-03-16 15:52:00,62.4,53.2,29.92,NW,315,7.0,12.0,72,0.00,,,0.00,meteohub,2013-03-16 22:52:00,
2013-03-16 15:58:00,62.6,53.4,29.93,West,270,10.0,12.0,72,0.00,,,0.00,meteohub,2013-03-16 22:58:00,
2013-03-16 16:03:00,62.8,53.6,29.93,WNW,293,8.0,12.0,72,0.00,,,0.00,meteohub,2013-03-16 23:03:00,
2013-03-16 16:08:00,62.4,53.6,29.93,NW,315,11.0,12.0,73,0.00,,,0.00,meteohub,2013-03-16 23:08:00,
2013-03-16 16:13:00,62.4,53.6,29.93,WNW,293,10.0,11.0,73,0.00,,,0.00,meteohub,2013-03-16 23:13:00,
2013-03-16 16:18:00,62.6,53.4,29.92,West,270,10.0,11.0,72,0.00,,,0.00,meteohub,2013-03-16 23:18:00,
2013-03-16 16:23:00,62.8,53.6,29.93,West,270,10.0,11.0,72,0.00,,,0.00,meteohub,2013-03-16 23:23:00,
2013-03-16 16:28:00,62.6,53.8,29.93,West,270,11.0,11.0,73,0.00,,,0.00,meteohub,2013-03-16 23:28:00,
2013-03-16 16:33:00,62.2,53.4,29.93,WNW,293,8.0,11.0,73,0.00,,,0.00,meteohub,2013-03-16 23:33:00,
2013-03-16 16:38:00,62.2,53.8,29.93,West,270,9.0,11.0,74,0.00,,,0.00,meteohub,2013-03-16 23:38:00,
2013-03-16 16:43:00,62.2,54.1,29.93,West,270,12.0,12.0,75,0.00,,,0.00,meteohub,2013-03-16 23:43:00,
2013-03-16 16:48:00,62.2,54.1,29.93,West,270,8.0,12.0,75,0.00,,,0.00,meteohub,2013-03-16 23:48:00,
2013-03-16 16:53:00,62.2,54.1,29.93,NW,315,10.0,12.0,75,0.00,,,0.00,meteohub,2013-03-16 23:53:00,
2013-03-16 16:58:00,61.7,53.8,29.94,West,270,12.0,12.0,75,0.00,,,0.00,meteohub,2013-03-16 23:58:00,
2013-03-16 17:03:00,61.5,54.3,29.93,NW,315,11.0,13.0,77,0.00,,,0.00,meteohub,2013-03-17 00:03:00,
2013-03-16 17:08:00,61.0,54.1,29.94,West,270,8.0,13.0,78,0.00,,,0.00,meteohub,2013-03-17 00:08:00,
2013-03-16 17:13:00,60.8,54.0,29.93,WNW,293,11.0,13.0,78,0.00,,,0.00,meteohub,2013-03-17 00:13:00,
2013-03-16 17:18:00,61.0,54.1,29.93,West,270,13.0,13.0,78,0.00,,,0.00,meteohub,2013-03-17 00:18:00,
2013-03-16 17:23:00,60.6,53.8,29.93,West,270,11.0,11.0,78,0.00,,,0.00,meteohub,2013-03-17 00:23:00,
2013-03-16 17:28:00,60.6,54.1,29.93,West,270,8.0,13.0,79,0.00,,,0.00,meteohub,2013-03-17 00:28:00,
2013-03-16 17:33:00,60.8,54.3,29.93,South,180,7.0,13.0,79,0.00,,,0.00,meteohub,2013-03-17 00:33:00,
2013-03-16 17:38:00,60.4,54.0,29.93,WNW,293,8.0,12.0,79,0.00,,,0.00,meteohub,2013-03-17 00:38:00,
2013-03-16 17:43:00,59.9,53.8,29.93,NW,315,8.0,11.0,80,0.00,,,0.00,meteohub,2013-03-17 00:43:00,
2013-03-16 17:48:00,60.1,54.0,29.93,West,270,10.0,11.0,80,0.00,,,0.00,meteohub,2013-03-17 00:48:00,
2013-03-16 17:53:00,60.1,54.3,29.92,West,270,4.0,11.0,81,0.00,,,0.00,meteohub,2013-03-17 00:53:00,
2013-03-16 17:58:00,59.7,54.1,29.93,WNW,293,8.0,11.0,82,0.00,,,0.00,meteohub,2013-03-17 00:58:00,
2013-03-16 18:03:00,59.0,53.8,29.92,West,270,7.0,11.0,83,0.00,,,0.00,meteohub,2013-03-17 01:03:00,
2013-03-16 18:08:00,58.5,54.0,29.93,West,270,8.0,11.0,85,0.00,,,0.00,meteohub,2013-03-17 01:08:00,
2013-03-16 18:13:00,57.6,53.4,29.93,NW,315,8.0,12.0,86,0.00,,,0.00,meteohub,2013-03-17 01:13:00,
2013-03-16 18:18:00,57.4,53.6,29.93,NW,315,7.0,12.0,87,0.00,,,0.00,meteohub,2013-03-17 01:18:00,
2013-03-16 18:24:00,57.2,53.6,29.94,West,270,10.0,12.0,88,0.00,,,0.00,meteohub,2013-03-17 01:24:00,
2013-03-16 18:29:00,57.0,53.4,29.94,West,270,7.0,11.0,88,0.00,,,0.00,meteohub,2013-03-17 01:29:00,
2013-03-16 18:34:00,56.8,53.6,29.94,WNW,293,9.0,11.0,89,0.00,,,0.00,meteohub,2013-03-17 01:34:00,
2013-03-16 18:39:00,57.0,53.8,29.94,West,270,9.0,11.0,89,0.00,,,0.00,meteohub,2013-03-17 01:39:00,
2013-03-16 18:44:00,56.5,53.2,29.94,NW,315,8.0,11.0,89,0.00,,,0.00,meteohub,2013-03-17 01:44:00,
2013-03-16 18:49:00,56.1,53.2,29.94,NW,315,8.0,11.0,90,0.00,,,0.00,meteohub,2013-03-17 01:49:00,
2013-03-16 18:54:00,55.9,53.4,29.93,West,270,8.0,11.0,91,0.00,,,0.00,meteohub,2013-03-17 01:54:00,
2013-03-16 18:59:00,55.9,53.6,29.93,NW,315,4.0,11.0,92,0.00,,,0.00,meteohub,2013-03-17 01:59:00,
2013-03-16 19:04:00,55.9,53.6,29.93,West,270,7.0,11.0,92,0.00,,,0.00,meteohub,2013-03-17 02:04:00,
2013-03-16 19:09:00,55.6,53.2,29.94,WNW,293,7.0,11.0,92,0.00,,,0.00,meteohub,2013-03-17 02:09:00,
2013-03-16 19:14:00,55.4,53.4,29.94,West,270,6.0,10.0,93,0.00,,,0.00,meteohub,2013-03-17 02:14:00,
2013-03-16 19:19:00,55.4,53.4,29.94,NW,315,5.0,10.0,93,0.00,,,0.00,meteohub,2013-03-17 02:19:00,
2013-03-16 19:24:00,55.4,53.4,29.94,NW,315,7.0,8.0,93,0.00,,,0.00,meteohub,2013-03-17 02:24:00,
2013-03-16 19:29:00,55.6,53.6,29.94,NW,315,5.0,8.0,93,0.00,,,0.00,meteohub,2013-03-17 02:29:00,
2013-03-16 19:34:00,55.4,53.4,29.95,NW,315,9.0,9.0,93,0.00,,,0.00,meteohub,2013-03-17 02:34:00,
2013-03-16 19:39:00,55.6,53.6,29.95,West,270,8.0,9.0,93,0.00,,,0.00,meteohub,2013-03-17 02:39:00,
2013-03-16 19:44:00,55.4,53.4,29.94,West,270,10.0,10.0,93,0.00,,,0.00,meteohub,2013-03-17 02:44:00,
2013-03-16 19:49:00,55.2,53.2,29.94,West,270,5.0,10.0,93,0.00,,,0.00,meteohub,2013-03-17 02:49:00,
2013-03-16 19:54:00,55.0,53.4,29.95,West,270,6.0,10.0,94,0.00,,,0.00,meteohub,2013-03-17 02:54:00,
2013-03-16 19:59:00,55.0,53.4,29.95,WNW,293,5.0,10.0,94,0.00,,,0.00,meteohub,2013-03-17 02:59:00,
2013-03-16 20:04:00,55.0,53.6,29.95,West,270,4.0,8.0,95,0.00,,,0.00,meteohub,2013-03-17 03:04:00,
2013-03-16 20:09:00,55.0,53.4,29.96,West,270,4.0,8.0,94,0.00,,,0.00,meteohub,2013-03-17 03:09:00,
2013-03-16 20:14:00,54.9,53.4,29.96,West,270,4.0,8.0,95,0.00,,,0.00,meteohub,2013-03-17 03:14:00,
2013-03-16 20:19:00,55.0,53.6,29.96,West,270,5.0,7.0,95,0.00,,,0.00,meteohub,2013-03-17 03:19:00,
2013-03-16 20:24:00,55.0,53.6,29.96,WNW,293,4.0,5.0,95,0.00,,,0.00,meteohub,2013-03-17 03:24:00,
2013-03-16 20:29:00,55.0,53.4,29.96,West,270,6.0,6.0,94,0.00,,,0.00,meteohub,2013-03-17 03:29:00,
2013-03-16 20:34:00,55.0,53.4,29.96,WNW,293,4.0,8.0,94,0.00,,,0.00,meteohub,2013-03-17 03:34:00,
2013-03-16 20:39:00,54.5,52.9,29.96,NW,315,4.0,8.0,94,0.00,,,0.00,meteohub,2013-03-17 03:39:00,
2013-03-16 20:44:00,54.9,53.4,29.96,West,270,4.0,8.0,95,0.00,,,0.00,meteohub,2013-03-17 03:44:00,
2013-03-16 20:50:00,54.7,53.2,29.95,West,270,4.0,5.0,95,0.00,,,0.00,meteohub,2013-03-17 03:50:00,
2013-03-16 20:55:00,54.7,53.2,29.96,West,270,4.0,5.0,95,0.00,,,0.00,meteohub,2013-03-17 03:55:00,
2013-03-16 21:00:00,54.7,53.2,29.96,West,270,4.0,5.0,95,0.00,,,0.00,meteohub,2013-03-17 04:00:00,
2013-03-16 21:01:00,54.9,53.4,29.97,West,270,3.0,5.0,95,0.00,,,0.00,meteohub,2013-03-17 04:01:00,
2013-03-16 21:06:00,54.9,53.4,29.97,WNW,293,4.0,5.0,95,0.00,,,0.00,meteohub,2013-03-17 04:06:00,
2013-03-16 21:11:00,54.9,53.4,29.97,WNW,293,6.0,6.0,95,0.00,,,0.00,meteohub,2013-03-17 04:11:00,
2013-03-16 21:16:00,55.0,53.6,29.97,West,270,3.0,6.0,95,0.00,,,0.00,meteohub,2013-03-17 04:16:00,
2013-03-16 21:21:00,55.0,53.6,29.97,NW,315,4.0,6.0,95,0.00,,,0.00,meteohub,2013-03-17 04:21:00,
2013-03-16 21:26:00,55.0,53.6,29.97,NW,315,3.0,6.0,95,0.00,,,0.00,meteohub,2013-03-17 04:26:00,
2013-03-16 21:31:00,55.2,53.8,29.97,NW,315,3.0,4.0,95,0.00,,,0.00,meteohub,2013-03-17 04:31:00,
2013-03-16 21:36:00,55.2,53.8,29.98,SW,225,2.0,4.0,95,0.00,,,0.00,meteohub,2013-03-17 04:36:00,
2013-03-16 21:41:00,55.2,53.6,29.97,West,270,2.0,4.0,94,0.00,,,0.00,meteohub,2013-03-17 04:41:00,
2013-03-16 21:46:00,55.2,53.8,29.97,West,270,1.0,4.0,95,0.00,,,0.00,meteohub,2013-03-17 04:46:00,
2013-03-16 21:51:00,55.2,53.8,29.98,NW,315,6.0,6.0,95,0.00,,,0.00,meteohub,2013-03-17 04:51:00,
2013-03-16 21:56:00,55.2,53.8,29.97,SW,225,2.0,6.0,95,0.00,,,0.00,meteohub,2013-03-17 04:56:00,
2013-03-16 22:01:00,55.2,53.8,29.98,West,270,2.0,6.0,95,0.00,,,0.00,meteohub,2013-03-17 05:01:00,
2013-03-16 22:06:00,55.4,53.8,29.98,West,270,2.0,6.0,94,0.00,,,0.00,meteohub,2013-03-17 05:06:00,
2013-03-16 22:11:00,55.4,53.8,29.98,South,180,4.0,4.0,94,0.00,,,0.00,meteohub,2013-03-17 05:11:00,
2013-03-16 22:16:00,55.4,53.8,29.98,South,180,1.0,4.0,94,0.00,,,0.00,meteohub,2013-03-17 05:16:00,
2013-03-16 22:21:00,55.6,54.0,29.98,South,180,4.0,4.0,94,0.00,,,0.00,meteohub,2013-03-17 05:21:00,
2013-03-16 22:26:00,55.6,54.0,29.98,SE,135,3.0,4.0,94,0.00,,,0.00,meteohub,2013-03-17 05:26:00,
2013-03-16 22:32:00,55.8,54.1,29.98,West,270,2.0,4.0,94,0.00,,,0.00,meteohub,2013-03-17 05:32:00,
2013-03-16 22:37:00,55.6,54.0,29.98,West,270,2.0,4.0,94,0.00,,,0.00,meteohub,2013-03-17 05:37:00,
2013-03-16 22:42:00,55.8,54.1,29.98,West,270,4.0,4.0,94,0.00,,,0.00,meteohub,2013-03-17 05:42:00,
2013-03-16 22:47:00,55.8,54.1,29.98,West,270,2.0,4.0,94,0.00,,,0.00,meteohub,2013-03-17 05:47:00,
2013-03-16 22:52:00,55.8,53.8,29.98,South,180,3.0,5.0,93,0.00,,,0.00,meteohub,2013-03-17 05:52:00,
2013-03-16 22:57:00,55.9,54.0,29.98,South,180,3.0,5.0,93,0.00,,,0.00,meteohub,2013-03-17 05:57:00,
2013-03-16 23:02:00,55.8,53.8,29.98,West,270,3.0,5.0,93,0.00,,,0.00,meteohub,2013-03-17 06:02:00,
2013-03-16 23:07:00,55.9,54.0,29.98,West,270,7.0,7.0,93,0.00,,,0.00,meteohub,2013-03-17 06:07:00,
2013-03-16 23:12:00,55.8,53.8,29.97,West,270,4.0,7.0,93,0.00,,,0.00,meteohub,2013-03-17 06:12:00,
2013-03-16 23:17:00,55.8,53.8,29.97,West,270,4.0,7.0,93,0.00,,,0.00,meteohub,2013-03-17 06:17:00,
2013-03-16 23:22:00,55.6,53.6,29.97,West,270,2.0,7.0,93,0.00,,,0.00,meteohub,2013-03-17 06:22:00,
2013-03-16 23:27:00,55.6,53.6,29.97,West,270,4.0,7.0,93,0.00,,,0.00,meteohub,2013-03-17 06:27:00,
2013-03-16 23:32:00,55.4,53.4,29.97,West,270,4.0,7.0,93,0.00,,,0.00,meteohub,2013-03-17 06:32:00,
2013-03-16 23:37:00,55.4,53.8,29.97,NNW,338,4.0,6.0,94,0.00,,,0.00,meteohub,2013-03-17 06:37:00,
2013-03-16 23:42:00,55.4,53.8,29.97,West,270,6.0,6.0,94,0.00,,,0.00,meteohub,2013-03-17 06:42:00,
2013-03-16 23:47:00,55.2,53.6,29.98,West,270,6.0,8.0,94,0.00,,,0.00,meteohub,2013-03-17 06:47:00,
2013-03-16 23:52:00,55.0,53.6,29.98,West,270,3.0,8.0,95,0.00,,,0.00,meteohub,2013-03-17 06:52:00,
2013-03-16 23:57:00,55.0,53.6,29.97,West,270,4.0,7.0,95,0.00,,,0.00,meteohub,2013-03-17 06:57:00,